GW6717 Weather Reports


time (UTC)temp
F
wind
direction
speed
knots
gust
knots
rain 1hr
in
rain 24hr
in
rain mn
in
humidity
%
barometer
mb
20260507231339 58 320 0.9 1.7 0.00 0.00 0.00 42 1010.6
20260507230835 58 23 0.0 0.9 0.00 0.00 0.00 40 1010.3
20260507230333 58 48 0.9 1.7 0.00 0.00 0.00 42 1010.4
20260507225832 58 9 0.0 0.0 0.00 0.00 0.00 42 1010.3
20260507225329 58 19 0.9 1.7 0.00 0.00 0.00 41 1010.2
20260507224825 59 338 0.9 1.7 0.00 0.00 0.00 37 1010.2
20260507224322 60 39 0.9 0.9 0.00 0.00 0.00 38 1010.2
20260507223818 60 26 0.0 0.9 0.00 0.00 0.00 37 1010.2
20260507223314 59 351 0.0 0.9 0.00 0.00 0.00 40 1010.1
20260507222812 59 1 0.9 1.7 0.00 0.00 0.00 41 1010.2
20260507222308 59 22 0.0 0.0 0.00 0.00 0.00 41 1010.0
20260507221805 59 62 0.0 0.0 0.00 0.00 0.00 41 1009.9
20260507221301 60 339 0.9 0.9 0.00 0.00 0.00 38 1010.0
20260507220757 60 37 0.9 1.7 0.00 0.00 0.00 37 1010.0
20260507220256 61 332 0.9 0.9 0.00 0.00 0.00 44 1009.8
20260507215752 61 292 0.0 1.7 0.00 0.00 0.00 43 1009.7
20260507215250 61 299 1.7 1.7 0.00 0.00 0.00 40 1009.7
20260507214746 61 7 0.9 1.7 0.00 0.00 0.00 40 1009.7
20260507214244 60 12 0.0 0.9 0.00 0.00 0.00 37 1009.6
20260507213739 60 25 0.9 1.7 0.00 0.00 0.00 41 1009.6
20260507213236 61 8 0.0 0.9 0.00 0.00 0.00 37 1009.6
20260507212732 62 304 0.0 0.9 0.00 0.00 0.00 36 1009.6
20260507212229 61 253 1.7 2.6 0.00 0.00 0.00 35 1009.7
20260507211726 61 49 0.9 0.9 0.00 0.00 0.00 36 1009.6
20260507211222 61 23 0.0 0.0 0.00 0.00 0.00 37 1009.5
20260507210719 61 14 0.9 0.9 0.00 0.00 0.00 39 1009.5
20260507210216 61 7 0.9 0.9 0.00 0.00 0.00 36 1009.3
20260507205712 61 22 0.9 0.9 0.00 0.00 0.00 41 1009.5
20260507205209 61 10 0.9 1.7 0.00 0.00 0.00 40 1009.4
20260507204705 60 1 0.0 0.0 0.00 0.00 0.00 42 1009.5
20260507204203 60 15 0.0 0.0 0.00 0.00 0.00 38 1009.4
20260507203701 61 27 0.9 0.9 0.00 0.00 0.00 41 1009.4
20260507203158 61 322 0.9 2.6 0.00 0.00 0.00 39 1009.3
20260507202653 61 359 0.0 0.9 0.00 0.00 0.00 40 1009.4
20260507202150 61 5 0.0 0.9 0.00 0.00 0.00 40 1009.4
20260507201645 61 0 0.9 0.9 0.00 0.00 0.00 38 1009.5
20260507201142 62 191 1.7 2.6 0.00 0.00 0.00 37 1009.4
20260507200638 62 312 1.7 1.7 0.00 0.00 0.00 42 1009.6
20260507200135 60 269 1.7 1.7 0.00 0.00 0.00 41 1009.6
20260507195631 60 208 1.7 2.6 0.00 0.00 0.00 37 1009.6
20260507195128 60 226 1.7 1.7 0.00 0.00 0.00 41 1009.8
20260507194626 62 104 2.6 2.6 0.00 0.00 0.00 38 1009.7
20260507194120 60 260 1.7 1.7 0.00 0.00 0.00 40 1009.8
20260507193618 60 354 0.9 1.7 0.00 0.00 0.00 41 1009.8
20260507193115 60 44 0.0 0.0 0.00 0.00 0.00 39 1009.7
20260507192611 62 25 0.0 0.9 0.00 0.00 0.00 39 1009.8
20260507192108 60 207 2.6 3.5 0.00 0.00 0.00 45 1009.8
20260507191603 60 319 0.0 0.9 0.00 0.00 0.00 44 1009.8
20260507191101 60 17 0.9 1.7 0.00 0.00 0.00 43 1010.0
20260507190558 60 13 0.0 0.0 0.00 0.00 0.00 43 1009.9
20260507190057 60 241 1.7 1.7 0.00 0.00 0.00 40 1010.0
20260507185555 60 33 1.7 2.6 0.00 0.00 0.00 41 1010.3
20260507185051 59 59 2.6 2.6 0.00 0.00 0.00 43 1010.1
20260507184549 60 270 1.7 1.7 0.00 0.00 0.00 47 1010.2
20260507184047 61 21 0.9 1.7 0.00 0.00 0.00 45 1010.3
20260507183542 61 14 0.9 1.7 0.00 0.00 0.00 44 1010.4
20260507183040 61 39 0.9 1.7 0.00 0.00 0.00 43 1010.3
20260507182536 61 341 0.9 0.9 0.00 0.00 0.00 43 1010.4
20260507182032 59 21 0.9 1.7 0.00 0.00 0.00 48 1010.5
20260507181529 60 359 0.9 2.6 0.00 0.00 0.00 43 1010.3
20260507181025 60 14 0.0 0.0 0.00 0.00 0.00 46 1010.4
20260507180522 63 36 2.6 2.6 0.00 0.00 0.00 43 1010.5
20260507180019 62 357 0.9 1.7 0.00 0.00 0.00 42 1010.4
20260507175515 62 22 0.9 1.7 0.00 0.00 0.00 40 1010.8
20260507175013 63 333 0.9 0.9 0.00 0.00 0.00 43 1010.8
20260507174510 60 359 0.0 0.9 0.00 0.00 0.00 51 1010.7
20260507174007 58 296 0.9 1.7 0.00 0.00 0.00 50 1010.8
20260507173504 59 53 0.9 0.9 0.00 0.00 0.00 44 1010.7
20260507173001 60 358 0.9 0.9 0.00 0.00 0.00 48 1011.0
20260507172457 60 22 0.9 1.7 0.00 0.00 0.00 46 1010.9
20260507171954 59 34 0.0 0.9 0.00 0.00 0.00 44 1011.0
20260507171449 60 296 0.9 1.7 0.00 0.00 0.00 44 1011.1
20260507170947 60 348 0.9 0.9 0.00 0.00 0.00 42 1010.9
20260507170444 60 352 1.7 2.6 0.00 0.00 0.00 49 1011.0
20260507165940 60 23 0.0 0.0 0.00 0.00 0.00 44 1011.0
20260507165436 60 27 0.9 0.9 0.00 0.00 0.00 46 1011.3
20260507164932 60 36 0.9 1.7 0.00 0.00 0.00 46 1011.2
20260507164429 61 24 0.0 0.0 0.00 0.00 0.00 46 1011.3
20260507163926 60 73 0.0 0.9 0.00 0.00 0.00 47 1011.6
20260507163424 60 261 0.9 2.6 0.00 0.00 0.00 44 1011.2
20260507162920 57 344 0.0 0.0 0.00 0.00 0.00 48 1011.4
20260507162415 58 316 1.7 2.6 0.00 0.00 0.00 44 1011.6
20260507161913 58 2 0.0 0.0 0.00 0.00 0.00 49 1011.7
20260507161409 59 23 0.0 0.9 0.00 0.00 0.00 44 1011.8
20260507160906 60 326 0.9 0.9 0.00 0.00 0.00 42 1011.6
20260507160402 61 80 0.9 0.9 0.00 0.00 0.00 43 1011.7
20260507155858 59 27 1.7 2.6 0.00 0.00 0.00 51 1011.8
20260507155354 59 353 0.9 0.9 0.00 0.00 0.00 46 1011.9
20260507154851 59 31 0.9 0.9 0.00 0.00 0.00 49 1011.8
20260507154348 57 350 0.9 0.9 0.00 0.00 0.00 51 1012.0
20260507153845 56 13 0.0 0.9 0.00 0.00 0.00 51 1012.1
20260507153341 57 348 0.9 0.9 0.00 0.00 0.00 46 1012.0
20260507152838 57 344 0.0 0.9 0.00 0.00 0.00 50 1012.1
20260507152334 57 213 1.7 1.7 0.00 0.00 0.00 47 1012.2
20260507151830 58 31 0.9 1.7 0.00 0.00 0.00 48 1012.2
20260507151327 57 40 0.0 0.9 0.00 0.00 0.00 48 1012.3
20260507150824 57 355 0.0 0.0 0.00 0.00 0.00 53 1012.2
20260507150320 56 1 0.0 0.0 0.00 0.00 0.00 51 1012.4
20260507145816 55 3 0.0 0.9 0.00 0.00 0.00 51 1012.4
20260507145313 55 24 0.0 0.9 0.00 0.00 0.00 57 1012.5
20260507144811 55 329 0.9 0.9 0.00 0.00 0.00 51 1012.6
20260507144307 55 30 0.0 0.9 0.00 0.00 0.00 51 1012.8
20260507143804 55 255 0.9 0.9 0.00 0.00 0.00 53 1012.8
20260507143302 55 208 0.9 1.7 0.00 0.00 0.00 58 1012.6
20260507142757 55 42 0.0 0.0 0.00 0.00 0.00 58 1012.7
20260507142254 54 46 0.9 1.7 0.00 0.00 0.00 59 1013.1
20260507141750 54 247 1.7 1.7 0.00 0.00 0.00 54 1013.0
20260507141248 54 172 1.7 2.6 0.00 0.00 0.00 60 1013.1
20260507140743 54 19 0.0 0.9 0.00 0.00 0.00 58 1013.0
20260507140241 53 6 0.0 0.0 0.00 0.00 0.00 56 1013.0
20260507135738 53 196 0.9 1.7 0.00 0.00 0.00 60 1013.3
20260507135235 53 25 0.0 0.0 0.00 0.00 0.00 61 1013.2
20260507134731 52 292 0.0 0.9 0.00 0.00 0.00 63 1013.4
20260507134228 52 25 0.0 0.0 0.00 0.00 0.00 66 1013.3
20260507133724 51 11 0.0 0.0 0.00 0.00 0.00 68 1013.3
20260507133221 52 29 0.0 0.0 0.00 0.00 0.00 68 1013.3
20260507132718 51 349 0.0 0.9 0.00 0.00 0.00 71 1013.4
20260507132215 51 356 0.0 0.0 0.00 0.00 0.00 70 1013.6
20260507131712 50 17 0.0 0.0 0.00 0.00 0.00 70 1013.6
20260507131209 50 28 0.0 0.0 0.00 0.00 0.00 75 1013.6
20260507130706 49 23 0.9 0.9 0.00 0.00 0.00 78 1013.4
20260507130204 48 22 0.0 0.0 0.00 0.00 0.00 80 1013.5
20260507125702 47 31 0.0 0.0 0.00 0.00 0.00 84 1013.4
20260507125159 46 20 0.0 0.0 0.00 0.00 0.00 88 1013.6
20260507124655 46 14 0.0 0.0 0.00 0.00 0.00 90 1013.5
20260507124153 46 15 0.0 0.0 0.00 0.00 0.00 91 1013.5
20260507123651 45 23 0.0 0.0 0.00 0.00 0.00 92 1013.6
20260507123148 44 16 0.0 0.0 0.00 0.00 0.00 93 1013.6
20260507122643 44 23 0.0 0.0 0.00 0.00 0.00 93 1013.7
20260507122139 44 20 0.0 0.0 0.00 0.00 0.00 93 1013.6
20260507121635 43 20 0.0 0.0 0.00 0.00 0.00 93 1013.6
20260507121131 43 20 0.0 0.0 0.00 0.00 0.00 94 1013.6
20260507120628 42 22 0.0 0.0 0.00 0.00 0.00 94 1013.8
20260507120124 42 22 0.0 0.0 0.00 0.00 0.00 94 1013.8
20260507115621 42 23 0.0 0.0 0.00 0.00 0.00 94 1013.7
20260507115117 41 23 0.0 0.0 0.00 0.00 0.00 94 1013.7
20260507114613 41 23 0.0 0.0 0.00 0.00 0.00 94 1013.6
20260507114110 41 23 0.0 0.0 0.00 0.00 0.00 94 1013.6
20260507113607 40 23 0.0 0.0 0.00 0.00 0.00 94 1013.5
20260507113104 40 23 0.0 0.0 0.00 0.00 0.00 93 1013.4
20260507112602 40 23 0.0 0.0 0.00 0.00 0.00 93 1013.3
20260507112059 39 23 0.0 0.0 0.00 0.00 0.00 93 1013.3
20260507111555 39 23 0.0 0.0 0.00 0.00 0.00 93 1013.3
20260507111052 39 23 0.0 0.0 0.00 0.00 0.00 93 1013.2
20260507110548 39 23 0.0 0.0 0.00 0.00 0.00 93 1013.2
20260507110045 39 23 0.0 0.0 0.00 0.00 0.00 93 1013.4
20260507105542 39 23 0.0 0.0 0.00 0.00 0.00 93 1013.3
20260507105038 39 23 0.0 0.0 0.00 0.00 0.00 93 1013.2
20260507104536 39 23 0.0 0.0 0.00 0.00 0.00 93 1013.1
20260507104032 39 23 0.0 0.0 0.00 0.00 0.00 93 1013.0
20260507103528 39 23 0.0 0.0 0.00 0.00 0.00 93 1013.0
20260507103025 39 23 0.0 0.0 0.00 0.00 0.00 92 1013.0
20260507102522 39 23 0.0 0.0 0.00 0.00 0.00 92 1013.0
20260507102018 40 23 0.0 0.0 0.00 0.00 0.00 92 1013.0
20260507101513 40 23 0.0 0.0 0.00 0.00 0.00 92 1012.9
20260507101010 40 23 0.0 0.0 0.00 0.00 0.00 92 1012.9
20260507100507 40 23 0.0 0.0 0.00 0.00 0.00 92 1012.9
20260507100005 40 23 0.0 0.0 0.00 0.00 0.00 92 1012.8
20260507095503 40 23 0.0 0.0 0.00 0.00 0.00 92 1013.0
20260507094959 40 23 0.0 0.0 0.00 0.00 0.00 91 1012.8
20260507094455 40 23 0.0 0.0 0.00 0.00 0.00 91 1012.8
20260507093953 40 23 0.0 0.0 0.00 0.00 0.00 91 1013.0
20260507093450 40 23 0.0 0.0 0.00 0.00 0.00 91 1012.9
20260507092948 40 23 0.0 0.0 0.00 0.00 0.00 91 1012.9
20260507092444 41 23 0.0 0.0 0.00 0.00 0.00 90 1013.0
20260507091941 41 23 0.0 0.0 0.00 0.00 0.00 90 1012.9
20260507091438 41 23 0.0 0.0 0.00 0.00 0.00 90 1013.0
20260507090934 41 23 0.0 0.0 0.00 0.00 0.00 90 1013.2
20260507090430 41 23 0.0 0.0 0.00 0.00 0.00 89 1013.0
20260507085926 41 22 0.0 0.0 0.00 0.00 0.00 89 1013.1
20260507085424 41 22 0.0 0.0 0.00 0.00 0.00 89 1013.0
20260507084921 41 22 0.0 0.0 0.00 0.00 0.00 88 1013.0
20260507084418 42 22 0.0 0.0 0.00 0.00 0.00 88 1012.9
20260507083915 42 22 0.0 0.0 0.00 0.00 0.00 88 1013.1
20260507083411 42 22 0.0 0.0 0.00 0.00 0.00 88 1013.0
20260507082907 42 22 0.0 0.0 0.00 0.00 0.00 88 1013.1
20260507082403 42 23 0.0 0.0 0.00 0.00 0.00 87 1013.1
20260507081901 42 23 0.0 0.0 0.00 0.00 0.00 87 1012.9
20260507081356 42 24 0.0 0.0 0.00 0.00 0.00 87 1012.9
20260507080853 42 23 0.0 0.0 0.00 0.00 0.00 86 1013.0
20260507080349 43 24 0.0 0.0 0.00 0.00 0.00 86 1012.9
20260507075845 43 26 0.0 0.0 0.00 0.00 0.00 85 1012.9
20260507075341 43 26 0.0 0.0 0.00 0.00 0.00 84 1013.0
20260507074837 43 26 0.0 0.0 0.00 0.00 0.00 83 1012.9
20260507074335 43 26 0.0 0.0 0.00 0.00 0.00 83 1013.0
20260507073832 44 26 0.0 0.0 0.00 0.00 0.00 82 1013.1
20260507073329 44 26 0.0 0.0 0.00 0.00 0.00 81 1013.0
20260507072826 44 26 0.0 0.0 0.00 0.00 0.00 80 1013.0
20260507072323 44 26 0.0 0.0 0.00 0.00 0.00 80 1013.2
20260507071821 44 27 0.0 0.0 0.00 0.00 0.00 80 1013.3
20260507071318 44 25 0.0 0.9 0.00 0.00 0.00 79 1013.2
20260507070814 44 23 0.9 0.9 0.00 0.00 0.00 79 1013.1
20260507070312 44 20 0.0 0.9 0.00 0.00 0.00 80 1013.1
20260507065808 45 22 0.0 0.9 0.00 0.00 0.00 80 1013.1
20260507065306 45 23 0.0 0.0 0.00 0.00 0.00 79 1013.2
20260507064802 45 23 0.0 0.0 0.00 0.00 0.00 78 1013.1
20260507064301 46 21 0.0 0.9 0.00 0.00 0.00 77 1013.0
20260507063758 46 20 0.0 0.0 0.00 0.00 0.00 76 1013.2
20260507063255 46 18 0.0 0.9 0.00 0.00 0.00 75 1013.1
20260507062752 47 19 0.0 0.0 0.00 0.00 0.00 75 1013.0
20260507062249 47 18 0.0 0.0 0.00 0.00 0.00 74 1013.0
20260507061747 47 22 0.0 0.0 0.00 0.00 0.00 73 1013.1
20260507061244 47 23 0.0 0.0 0.00 0.00 0.00 72 1013.1
20260507060742 47 23 0.0 0.0 0.00 0.00 0.00 70 1013.2
20260507060239 48 23 0.0 0.0 0.00 0.00 0.00 71 1013.1
20260507055735 48 23 0.0 0.0 0.00 0.00 0.00 69 1013.2
20260507055230 48 23 0.0 0.0 0.00 0.00 0.00 70 1013.3
20260507054727 48 23 0.0 0.0 0.00 0.00 0.00 70 1013.5
20260507054224 48 23 0.0 0.0 0.00 0.00 0.00 69 1013.4
20260507053721 48 23 0.0 0.0 0.00 0.00 0.00 70 1013.6
20260507053219 48 23 0.0 0.0 0.00 0.00 0.00 70 1013.8
20260507052718 48 23 0.0 0.0 0.00 0.00 0.00 69 1013.8
20260507052213 48 23 0.0 0.0 0.00 0.00 0.00 70 1013.7
20260507051712 48 23 0.0 0.0 0.00 0.00 0.00 70 1013.9
20260507051208 48 23 0.0 0.0 0.00 0.00 0.00 69 1013.8
20260507050705 48 23 0.0 0.0 0.00 0.00 0.00 70 1013.8
20260507050202 48 23 0.0 0.0 0.00 0.00 0.00 69 1014.1
20260507045659 49 23 0.0 0.0 0.00 0.00 0.00 68 1013.8
20260507045156 49 23 0.0 0.0 0.00 0.00 0.00 68 1013.7
20260507044652 48 23 0.0 0.0 0.00 0.00 0.00 69 1013.6
20260507044149 48 23 0.0 0.0 0.00 0.00 0.00 67 1013.8
20260507043645 48 23 0.0 0.0 0.00 0.00 0.00 69 1013.7
20260507043142 48 23 0.0 0.0 0.00 0.00 0.00 68 1013.5
20260507042638 49 23 0.0 0.0 0.00 0.00 0.00 70 1013.7
20260507042134 49 23 0.0 0.0 0.00 0.00 0.00 69 1013.7
20260507041631 49 23 0.0 0.0 0.00 0.00 0.00 68 1013.7
20260507041127 49 23 0.0 0.0 0.00 0.00 0.00 69 1013.9
20260507040624 49 23 0.0 0.0 0.00 0.00 0.00 69 1013.8
20260507040120 49 23 0.0 0.0 0.00 0.00 0.00 70 1013.4
20260507035616 49 23 0.0 0.0 0.00 0.52 0.52 69 1013.5
20260507035113 49 23 0.0 0.0 0.00 0.52 0.52 68 1013.6
20260507034609 49 23 0.0 0.0 0.00 0.52 0.52 70 1013.4
20260507034107 49 23 0.0 0.0 0.00 0.52 0.52 72 1013.4
20260507033606 49 23 0.0 0.0 0.00 0.52 0.52 72 1013.5
20260507033102 49 23 0.0 0.0 0.00 0.52 0.52 71 1013.6
20260507032600 49 23 0.0 0.0 0.00 0.52 0.52 70 1013.3
20260507032055 49 23 0.0 0.0 0.00 0.52 0.52 72 1013.5
20260507031552 49 23 0.0 0.0 0.00 0.52 0.52 72 1013.4
20260507031049 49 23 0.0 0.0 0.00 0.52 0.52 73 1013.3
20260507030546 50 23 0.0 0.0 0.00 0.52 0.52 73 1013.0
20260507030044 49 23 0.0 0.0 0.00 0.52 0.52 72 1013.0
20260507025541 50 23 0.0 0.0 0.00 0.52 0.52 72 1013.1
20260507025038 50 23 0.0 0.0 0.00 0.52 0.52 70 1013.3
20260507024536 50 23 0.0 0.0 0.00 0.52 0.52 71 1013.2
20260507024032 50 23 0.0 0.0 0.00 0.52 0.52 70 1013.2
20260507023528 50 23 0.0 0.0 0.00 0.52 0.52 70 1013.0
20260507023026 50 23 0.0 0.0 0.00 0.52 0.52 72 1013.0
20260507022522 50 23 0.0 0.0 0.00 0.52 0.52 71 1013.1
20260507022017 50 23 0.0 0.0 0.00 0.52 0.52 70 1012.9
20260507021514 50 23 0.0 0.0 0.00 0.52 0.52 70 1012.9
20260507021011 50 23 0.0 0.0 0.00 0.52 0.52 68 1013.0
20260507020508 50 23 0.0 0.0 0.00 0.52 0.52 69 1012.8
20260507020004 50 22 0.0 0.0 0.00 0.52 0.52 68 1012.8
20260507015503 50 22 0.0 0.0 0.00 0.52 0.52 69 1012.7
20260507015000 50 23 0.0 0.0 0.00 0.52 0.52 70 1012.7
20260507014456 50 23 0.0 0.0 0.00 0.52 0.52 69 1012.4
20260507013952 50 23 0.0 0.0 0.00 0.52 0.52 70 1012.4
20260507013449 50 23 0.0 0.0 0.00 0.52 0.52 69 1012.4
20260507012946 51 23 0.0 0.0 0.00 0.52 0.52 70 1012.3
20260507012443 51 23 0.0 0.0 0.00 0.52 0.52 70 1012.4
20260507011940 51 23 0.0 0.0 0.00 0.52 0.52 69 1012.2
20260507011437 51 24 0.0 0.0 0.00 0.52 0.52 68 1012.1
20260507010937 51 25 0.0 0.0 0.00 0.52 0.52 69 1012.3
20260507010433 51 25 0.0 0.0 0.00 0.52 0.52 68 1012.2
20260507005930 51 25 0.0 0.0 0.00 0.52 0.52 69 1012.4
20260507005427 51 25 0.0 0.0 0.00 0.52 0.52 69 1012.4
20260507004923 51 25 0.0 0.0 0.00 0.52 0.52 68 1012.6
20260507004420 51 25 0.0 0.0 0.00 0.52 0.52 68 1012.6
20260507003918 51 25 0.0 0.0 0.00 0.52 0.52 67 1012.6
20260507003412 51 25 0.0 0.0 0.00 0.52 0.52 69 1012.5
20260507002908 52 25 0.0 0.0 0.00 0.52 0.52 68 1012.5
20260507002404 52 25 0.0 0.0 0.00 0.52 0.52 69 1012.5
20260507001902 52 20 0.0 0.0 0.00 0.52 0.52 69 1012.6
20260507001358 52 26 0.0 0.0 0.00 0.52 0.52 68 1012.5
20260507000856 52 25 0.0 0.0 0.00 0.52 0.52 71 1012.6
20260507000350 53 23 0.0 0.0 0.00 0.52 0.52 71 1012.4
20260506235847 53 25 0.0 0.0 0.00 0.52 0.52 73 1012.4
20260506235344 53 21 0.0 0.0 0.00 0.52 0.52 73 1012.6
20260506234840 53 19 0.0 0.0 0.00 0.52 0.52 74 1012.3
20260506234338 54 21 0.0 0.0 0.00 0.52 0.52 74 1012.3
20260506233836 54 22 0.0 0.0 0.00 0.52 0.52 73 1012.1
20260506233331 54 22 0.0 0.0 0.00 0.52 0.52 72 1011.9
20260506232828 54 22 0.0 0.0 0.00 0.52 0.52 73 1012.0
20260506232324 54 22 0.0 0.0 0.00 0.52 0.52 73 1011.8